Stations météo

réclame
Mon MeteoGroup
Bousson, Italie (16058): Température de l'air & dewpoint: 12.12.2017 23:00:00 - 18.12.2017 23:00:00 (CET)Bousson, Italie (16058): Vitesse du vent: 12.12.2017 23:00:00 - 18.12.2017 23:00:00 (CET)Bousson, Italie (16058): Direction du vent: 12.12.2017 23:00:00 - 18.12.2017 23:00:00 (CET)Bousson, Italie (16058): Quantités de précipitations: 12.12.2017 23:00:00 - 18.12.2017 23:00:00 (CET)
Date & Time tt [°C] td [°C] ff [km/h] ff [knt] dd rr [mm]
18.12.2017 23:00:00 - - - - - -
18.12.2017 22:00:00 -11,7 -12,6 4 2 E -
18.12.2017 21:00:00 -11,9 -13,2 2 1 S -
18.12.2017 20:00:00 -11,0 -12,5 5 3 E -
18.12.2017 19:00:00 -10,1 -12,6 2 1 E 0,0
18.12.2017 18:00:00 -7,7 -11,4 2 1 E -
18.12.2017 17:00:00 -4,7 -8,5 2 1 E -
18.12.2017 16:00:00 -3,4 -10,1 5 3 SW -
18.12.2017 15:00:00 -2,8 -7,8 9 5 SW -
18.12.2017 14:00:00 -2,9 -6,6 5 3 W -
18.12.2017 13:00:00 -0,4 -8,0 16 9 W 0,0
18.12.2017 12:00:00 0,9 -0,9 2 1 ESE -
18.12.2017 11:00:00 -2,1 -3,4 2 1 E -
18.12.2017 10:00:00 -4,1 -5,7 2 1 E -
18.12.2017 09:00:00 -5,5 -7,7 2 1 S -
18.12.2017 08:00:00 -6,7 -9,6 4 2 ESE -
18.12.2017 07:00:00 -9,5 -12,0 4 2 ESE 0,0
18.12.2017 06:00:00 -10,7 -12,9 2 1 E -
18.12.2017 05:00:00 -11,5 -13,4 2 1 ESE -
18.12.2017 04:00:00 -12,1 -13,9 2 1 E -
18.12.2017 03:00:00 -13,1 -14,4 2 1 ESE -
18.12.2017 02:00:00 -13,5 -14,9 4 2 E -
18.12.2017 01:00:00 -14,8 -16,2 2 1 ENE 0,0
18.12.2017 00:00:00 -14,2 -15,4 4 2 E -
17.12.2017 23:00:00 -14,7 -15,9 2 1 E -
17.12.2017 22:00:00 -14,1 -15,6 4 2 E -
17.12.2017 21:00:00 -13,6 -15,4 2 1 ENE -
17.12.2017 20:00:00 -13,0 -15,1 2 1 E -
17.12.2017 19:00:00 -11,9 -14,5 4 2 E -
17.12.2017 18:00:00 -10,9 -13,8 4 2 E -
17.12.2017 17:00:00 -8,8 -13,3 4 2 E -
17.12.2017 16:00:00 -6,2 -13,8 4 2 E -
17.12.2017 15:00:00 -3,7 -12,0 4 2 E -
17.12.2017 14:00:00 -3,2 -9,3 5 3 E -
17.12.2017 13:00:00 -5,5 -8,8 4 2 E 0,0
17.12.2017 12:00:00 -7,8 -9,2 4 2 E -
17.12.2017 11:00:00 -10,9 -11,8 4 2 E -
17.12.2017 10:00:00 -13,1 -14,5 4 2 E -
17.12.2017 09:00:00 -12,5 -13,8 2 1 ENE -
17.12.2017 08:00:00 -12,9 -14,0 2 1 SE -
17.12.2017 07:00:00 -12,8 -13,9 4 2 E 0,0
17.12.2017 06:00:00 -13,1 -14,4 2 1 WSW -
17.12.2017 05:00:00 -12,7 -14,0 4 2 E -
17.12.2017 04:00:00 -12,2 -13,3 2 1 E -
17.12.2017 03:00:00 -12,7 -14,1 2 1 ESE -
17.12.2017 02:00:00 -12,0 -13,3 4 2 ENE -
17.12.2017 01:00:00 -11,7 -13,0 4 2 E 0,0
17.12.2017 00:00:00 -11,8 -13,1 4 2 ENE -
16.12.2017 23:00:00 -11,5 -12,9 4 2 E -
16.12.2017 22:00:00 -11,6 -13,2 2 1 ESE -
16.12.2017 21:00:00 -10,9 -12,4 4 2 E -
16.12.2017 20:00:00 -10,6 -12,4 2 1 E -
16.12.2017 19:00:00 -9,5 -11,7 4 2 E -
16.12.2017 18:00:00 -7,9 -10,5 4 2 E -
16.12.2017 17:00:00 -7,0 -10,7 2 1 E -
16.12.2017 16:00:00 -3,8 -12,1 5 3 SW -
16.12.2017 15:00:00 0,2 -10,2 8 4 SSW -
16.12.2017 14:00:00 0,8 -9,9 4 2 NE -
16.12.2017 13:00:00 -4,0 -6,3 4 2 E 0,0
16.12.2017 12:00:00 -6,4 -7,8 5 3 E -
16.12.2017 11:00:00 -7,6 -9,0 4 2 E -
16.12.2017 10:00:00 -6,9 -7,7 2 1 E -
16.12.2017 09:00:00 -8,0 -8,8 4 2 ESE -
16.12.2017 08:00:00 -8,3 -9,2 4 2 E -
16.12.2017 07:00:00 -8,3 -9,7 5 3 E 0,0
16.12.2017 06:00:00 -7,4 -8,2 5 3 E -
16.12.2017 05:00:00 -8,1 -9,0 5 3 E -
16.12.2017 04:00:00 -7,4 -8,1 4 2 E -
16.12.2017 03:00:00 -8,3 -9,7 4 2 E -
16.12.2017 02:00:00 -7,2 -8,2 2 1 E -
16.12.2017 01:00:00 -6,7 -7,2 4 2 ESE 0,0
16.12.2017 00:00:00 -8,5 -9,3 2 1 E -
15.12.2017 23:00:00 -9,4 -9,9 4 2 E -
15.12.2017 22:00:00 -10,7 -11,9 4 2 E -
15.12.2017 21:00:00 -9,8 -11,0 5 3 E -
15.12.2017 20:00:00 -9,2 -10,4 8 4 E -
15.12.2017 19:00:00 -8,9 -10,3 5 3 ENE -
15.12.2017 18:00:00 -7,8 -9,2 5 3 E -
15.12.2017 17:00:00 -6,4 -8,7 5 3 E -
15.12.2017 16:00:00 -3,4 -7,8 2 1 WNW -
15.12.2017 15:00:00 0,7 -4,0 2 1 S -
15.12.2017 14:00:00 0,2 -3,4 4 2 ENE -
15.12.2017 13:00:00 1,2 -1,6 4 2 WNW -
15.12.2017 12:00:00 0,6 -0,4 2 1 E -
15.12.2017 11:00:00 0,0 -0,6 0 0 N -
15.12.2017 10:00:00 -0,7 -1,0 0 0 N -
15.12.2017 09:00:00 -0,9 -1,2 2 1 E -
15.12.2017 08:00:00 -0,8 -1,2 0 0 N -
15.12.2017 07:00:00 -0,6 -1,0 0 0 N -
15.12.2017 06:00:00 -0,4 -1,1 2 1 WSW -
15.12.2017 05:00:00 1,6 0,1 13 7 WSW -
15.12.2017 04:00:00 1,8 0,3 11 6 W -
15.12.2017 03:00:00 2,7 -0,5 15 8 W -
15.12.2017 02:00:00 2,7 -0,1 9 5 WSW -
15.12.2017 01:00:00 3,5 -3,0 15 8 W -
15.12.2017 00:00:00 3,5 -2,5 16 9 W -
14.12.2017 23:00:00 2,8 -2,4 15 8 W -
14.12.2017 22:00:00 3,0 -0,9 13 7 W -
14.12.2017 21:00:00 2,5 -1,0 13 7 W -
14.12.2017 20:00:00 2,1 -1,9 8 4 WSW -
14.12.2017 19:00:00 2,3 -1,0 11 6 WSW -
14.12.2017 18:00:00 2,5 -1,2 11 6 WSW -
14.12.2017 17:00:00 2,1 -0,4 13 7 WSW -
14.12.2017 16:00:00 2,4 -1,1 11 6 WSW -
14.12.2017 15:00:00 3,9 -1,5 9 5 SW -
14.12.2017 14:00:00 4,8 -2,6 9 5 WSW -
14.12.2017 13:00:00 3,4 -3,5 11 6 WSW 0,0
14.12.2017 12:00:00 3,6 -5,5 11 6 WSW -
14.12.2017 11:00:00 3,2 -6,1 15 8 W -
14.12.2017 10:00:00 3,1 -5,2 15 8 WSW -
14.12.2017 09:00:00 3,1 -2,9 15 8 W -
14.12.2017 08:00:00 3,3 -2,7 15 8 W -
14.12.2017 07:00:00 3,1 -1,9 13 7 W 0,0
14.12.2017 06:00:00 3,0 -0,7 16 9 W -
14.12.2017 05:00:00 -2,5 -2,5 2 1 S -
14.12.2017 04:00:00 -3,5 -3,5 4 2 E -
14.12.2017 03:00:00 -4,8 -4,9 2 1 SSE -
14.12.2017 02:00:00 -4,8 -5,2 4 2 E -
14.12.2017 01:00:00 -4,3 -4,9 2 1 N 0,0
14.12.2017 00:00:00 -2,9 -3,0 2 1 NW -
13.12.2017 23:00:00 -3,0 -3,3 2 1 ESE -
13.12.2017 22:00:00 -4,1 -4,5 4 2 E -
13.12.2017 21:00:00 -5,2 -5,9 4 2 E -
13.12.2017 20:00:00 -6,1 -7,3 2 1 ESE -
13.12.2017 19:00:00 -4,8 -6,7 4 2 ESE -
13.12.2017 18:00:00 -3,9 -5,5 4 2 E -
13.12.2017 17:00:00 -4,6 -6,8 2 1 E -
13.12.2017 16:00:00 -3,7 -7,0 5 3 E -
13.12.2017 15:00:00 -2,3 -6,2 5 3 E -
13.12.2017 14:00:00 -3,1 -5,5 8 4 E -
13.12.2017 13:00:00 -5,3 -5,3 4 2 E 0,0
13.12.2017 12:00:00 -9,0 -9,3 5 3 E -
13.12.2017 11:00:00 -11,1 -11,6 4 2 E -
13.12.2017 10:00:00 -12,1 -12,6 2 1 E -
13.12.2017 09:00:00 -12,7 -13,3 2 1 E -
13.12.2017 08:00:00 -12,9 -13,5 2 1 E -
13.12.2017 07:00:00 -13,9 -14,6 2 1 E 0,0
13.12.2017 06:00:00 -13,9 -14,6 2 1 E -
13.12.2017 05:00:00 -13,7 -14,4 4 2 E -
13.12.2017 04:00:00 -13,8 -14,5 2 1 ENE -
13.12.2017 03:00:00 -13,7 -14,6 2 1 ENE -
13.12.2017 02:00:00 -13,4 -14,4 2 1 E -
13.12.2017 01:00:00 -12,8 -13,9 2 1 E 0,0
13.12.2017 00:00:00 -11,8 -12,9 2 1 E -
12.12.2017 23:00:00 -10,3 -11,5 4 2 E -

tt = Température de l'air
td = dewpoint
ff = Vitesse du vent
dd = Direction du vent
rr = Quantités de précipitations

stations d'obs. à proximité